Year,Month,Day,Hour,Minute,Value (Times are PST for temperature in C)
2014,06,18,00,00,10.60
2014,06,18,00,01,10.40
2014,06,18,00,02,10.40
2014,06,18,00,03,10.40
2014,06,18,00,04,10.40
2014,06,18,00,05,10.40
2014,06,18,00,06,10.40
2014,06,18,00,07,10.40
2014,06,18,00,08,10.40
2014,06,18,00,09,10.40
2014,06,18,00,10,10.40
2014,06,18,00,11,10.40
2014,06,18,00,12,10.40
2014,06,18,00,13,10.40
2014,06,18,00,14,10.40
2014,06,18,00,15,10.40
2014,06,18,00,17,10.10
2014,06,18,00,18,10.10
2014,06,18,00,19,10.10
2014,06,18,00,20,10.10
2014,06,18,00,21,10.10
2014,06,18,00,22,10.10
2014,06,18,00,23,10.10
2014,06,18,00,24,10.10
2014,06,18,00,25,10.10
2014,06,18,00,26,10.10
2014,06,18,00,27,10.10
2014,06,18,00,28,10.10
2014,06,18,00,29,10.10
2014,06,18,00,30,10.10
2014,06,18,00,31,9.90
2014,06,18,00,32,9.90
2014,06,18,00,33,9.90
2014,06,18,00,34,9.90
2014,06,18,00,35,9.90
2014,06,18,00,36,9.90
2014,06,18,00,37,9.90
2014,06,18,00,38,9.90
2014,06,18,00,39,9.90
2014,06,18,00,40,9.90
2014,06,18,00,41,9.90
2014,06,18,00,42,9.90
2014,06,18,00,43,9.90
2014,06,18,00,44,9.90
2014,06,18,00,45,9.90
2014,06,18,00,46,9.80
2014,06,18,00,47,9.80
2014,06,18,00,48,9.80
2014,06,18,00,49,9.80
2014,06,18,00,50,9.80
2014,06,18,00,51,9.80
2014,06,18,00,52,9.80
2014,06,18,00,53,9.80
2014,06,18,00,54,9.80
2014,06,18,00,55,9.80
2014,06,18,00,56,9.80
2014,06,18,00,57,9.80
2014,06,18,00,58,9.80
2014,06,18,00,59,9.80
2014,06,18,01,00,9.80
2014,06,18,01,01,9.60
2014,06,18,01,02,9.60
2014,06,18,01,03,9.60
2014,06,18,01,04,9.60
2014,06,18,01,05,9.60
2014,06,18,01,06,9.60
2014,06,18,01,07,9.60
2014,06,18,01,08,9.60
2014,06,18,01,09,9.60
2014,06,18,01,10,9.60
2014,06,18,01,11,9.60
2014,06,18,01,12,9.60
2014,06,18,01,13,9.60
2014,06,18,01,14,9.60
2014,06,18,01,15,9.60
2014,06,18,01,16,9.60
2014,06,18,01,17,9.60
2014,06,18,01,18,9.60
2014,06,18,01,19,9.60
2014,06,18,01,20,9.60
2014,06,18,01,21,9.60
2014,06,18,01,22,9.60
2014,06,18,01,23,9.60
2014,06,18,01,24,9.60
2014,06,18,01,25,9.60
2014,06,18,01,26,9.60
2014,06,18,01,27,9.60
2014,06,18,01,28,9.60
2014,06,18,01,29,9.60
2014,06,18,01,30,9.60
2014,06,18,01,31,9.70
2014,06,18,01,32,9.70
2014,06,18,01,33,9.70
2014,06,18,01,34,9.70
2014,06,18,01,35,9.70
2014,06,18,01,36,9.70
2014,06,18,01,37,9.70
2014,06,18,01,38,9.70
2014,06,18,01,39,9.70
2014,06,18,01,40,9.70
2014,06,18,01,41,9.70
2014,06,18,01,42,9.70
2014,06,18,01,43,9.70
2014,06,18,01,44,9.70
2014,06,18,01,45,9.70
2014,06,18,01,46,9.50
2014,06,18,01,47,9.50
2014,06,18,01,48,9.50
2014,06,18,01,49,9.50
2014,06,18,01,50,9.50
2014,06,18,01,51,9.50
2014,06,18,01,52,9.50
2014,06,18,01,53,9.50
2014,06,18,01,54,9.50
2014,06,18,01,55,9.50
2014,06,18,01,56,9.50
2014,06,18,01,57,9.50
2014,06,18,01,58,9.50
2014,06,18,01,59,9.50
2014,06,18,02,00,9.50
2014,06,18,02,01,9.60
2014,06,18,02,02,9.60
2014,06,18,02,03,9.60
2014,06,18,02,04,9.60
2014,06,18,02,05,9.60
2014,06,18,02,06,9.60
2014,06,18,02,07,9.60
2014,06,18,02,08,9.60
2014,06,18,02,09,9.60
2014,06,18,02,10,9.60
2014,06,18,02,11,9.60
2014,06,18,02,12,9.60
2014,06,18,02,13,9.60
2014,06,18,02,14,9.60
2014,06,18,02,15,9.60
2014,06,18,02,16,9.60
2014,06,18,02,17,9.40
2014,06,18,02,18,9.40
2014,06,18,02,19,9.40
2014,06,18,02,20,9.40
2014,06,18,02,21,9.40
2014,06,18,02,22,9.40
2014,06,18,02,23,9.40
2014,06,18,02,24,9.40
2014,06,18,02,25,9.40
2014,06,18,02,26,9.40
2014,06,18,02,27,9.40
2014,06,18,02,28,9.40
2014,06,18,02,29,9.40
2014,06,18,02,30,9.40
2014,06,18,02,31,9.40
2014,06,18,02,32,9.40
2014,06,18,02,33,9.40
2014,06,18,02,34,9.40
2014,06,18,02,35,9.40
2014,06,18,02,36,9.40
2014,06,18,02,37,9.40
2014,06,18,02,38,9.40
2014,06,18,02,39,9.40
2014,06,18,02,40,9.40
2014,06,18,02,41,9.40
2014,06,18,02,42,9.40
2014,06,18,02,43,9.40
2014,06,18,02,44,9.40
2014,06,18,02,45,9.40
2014,06,18,02,46,9.30
2014,06,18,02,47,9.30
2014,06,18,02,48,9.30
2014,06,18,02,49,9.30
2014,06,18,02,50,9.30
2014,06,18,02,51,9.30
2014,06,18,02,52,9.30
2014,06,18,02,53,9.30
2014,06,18,02,54,9.30
2014,06,18,02,55,9.30
2014,06,18,02,56,9.30
2014,06,18,02,57,9.30
2014,06,18,02,58,9.30
2014,06,18,02,59,9.30
2014,06,18,03,00,9.30
2014,06,18,03,01,9.10
2014,06,18,03,02,9.10
2014,06,18,03,03,9.10
2014,06,18,03,04,9.10
2014,06,18,03,05,9.10
2014,06,18,03,06,9.10
2014,06,18,03,07,9.10
2014,06,18,03,08,9.10
2014,06,18,03,09,9.10
2014,06,18,03,10,9.10
2014,06,18,03,11,9.10
2014,06,18,03,12,9.10
2014,06,18,03,13,9.10
2014,06,18,03,14,9.10
2014,06,18,03,15,9.10
2014,06,18,03,16,9.10
2014,06,18,03,17,9.10
2014,06,18,03,18,9.10
2014,06,18,03,19,9.10
2014,06,18,03,20,9.10
2014,06,18,03,21,9.10
2014,06,18,03,22,9.10
2014,06,18,03,23,9.10
2014,06,18,03,24,9.10
2014,06,18,03,25,9.10
2014,06,18,03,26,9.10
2014,06,18,03,27,9.10
2014,06,18,03,28,9.10
2014,06,18,03,29,9.10
2014,06,18,03,30,9.10
2014,06,18,03,31,9.10
2014,06,18,03,32,9.10
2014,06,18,03,33,9.10
2014,06,18,03,34,9.10
2014,06,18,03,35,9.10
2014,06,18,03,36,9.10
2014,06,18,03,37,9.10
2014,06,18,03,38,9.10
2014,06,18,03,39,9.10
2014,06,18,03,40,9.10
2014,06,18,03,41,9.10
2014,06,18,03,42,9.10
2014,06,18,03,43,9.10
2014,06,18,03,44,9.10
2014,06,18,03,45,9.10
2014,06,18,03,47,9.10
2014,06,18,03,48,9.10
2014,06,18,03,49,9.10
2014,06,18,03,50,9.10
2014,06,18,03,51,9.10
2014,06,18,03,52,9.10
2014,06,18,03,53,9.10
2014,06,18,03,54,9.10
2014,06,18,03,55,9.10
2014,06,18,03,56,9.10
2014,06,18,03,57,9.10
2014,06,18,03,58,9.10
2014,06,18,03,59,9.10
2014,06,18,04,00,9.10
2014,06,18,04,02,9.20
2014,06,18,04,03,9.20
2014,06,18,04,04,9.20
2014,06,18,04,05,9.20
2014,06,18,04,06,9.20
2014,06,18,04,07,9.20
2014,06,18,04,08,9.20
2014,06,18,04,09,9.20
2014,06,18,04,10,9.20
2014,06,18,04,11,9.20
2014,06,18,04,12,9.20
2014,06,18,04,13,9.20
2014,06,18,04,14,9.20
2014,06,18,04,15,9.20
2014,06,18,04,16,9.10
2014,06,18,04,17,9.10
2014,06,18,04,18,9.10
2014,06,18,04,19,9.10
2014,06,18,04,20,9.10
2014,06,18,04,21,9.10
2014,06,18,04,22,9.10
2014,06,18,04,23,9.10
2014,06,18,04,24,9.10
2014,06,18,04,25,9.10
2014,06,18,04,26,9.10
2014,06,18,04,27,9.10
2014,06,18,04,28,9.10
2014,06,18,04,29,9.10
2014,06,18,04,30,9.10
2014,06,18,04,31,9.10
2014,06,18,04,32,9.10
2014,06,18,04,33,9.10
2014,06,18,04,34,9.10
2014,06,18,04,35,9.10
2014,06,18,04,36,9.10
2014,06,18,04,37,9.10
2014,06,18,04,38,9.10
2014,06,18,04,39,9.10
2014,06,18,04,40,9.10
2014,06,18,04,41,9.10
2014,06,18,04,42,9.10
2014,06,18,04,43,9.10
2014,06,18,04,44,9.10
2014,06,18,04,45,9.10
2014,06,18,04,46,8.80
2014,06,18,04,47,8.80
2014,06,18,04,48,8.80
2014,06,18,04,49,8.80
2014,06,18,04,50,8.80
2014,06,18,04,51,8.80
2014,06,18,04,52,8.80
2014,06,18,04,53,8.80
2014,06,18,04,54,8.80
2014,06,18,04,55,8.80
2014,06,18,04,56,8.80
2014,06,18,04,57,8.80
2014,06,18,04,58,8.80
2014,06,18,04,59,8.80
2014,06,18,05,00,8.80
2014,06,18,05,01,8.50
2014,06,18,05,02,8.50
2014,06,18,05,03,8.50
2014,06,18,05,04,8.50
2014,06,18,05,05,8.50
2014,06,18,05,06,8.50
2014,06,18,05,07,8.50
2014,06,18,05,08,8.50
2014,06,18,05,09,8.50
2014,06,18,05,10,8.50
2014,06,18,05,11,8.50
2014,06,18,05,12,8.50
2014,06,18,05,13,8.50
2014,06,18,05,14,8.50
2014,06,18,05,15,8.50
2014,06,18,05,16,8.50
2014,06,18,05,17,8.20
2014,06,18,05,18,8.20
2014,06,18,05,19,8.20
2014,06,18,05,20,8.20
2014,06,18,05,21,8.20
2014,06,18,05,22,8.20
2014,06,18,05,23,8.20
2014,06,18,05,24,8.20
2014,06,18,05,25,8.20
2014,06,18,05,26,8.20
2014,06,18,05,27,8.20
2014,06,18,05,28,8.20
2014,06,18,05,29,8.20
2014,06,18,05,30,8.20
2014,06,18,05,31,8.10
2014,06,18,05,32,8.10
2014,06,18,05,33,8.10
2014,06,18,05,34,8.10
2014,06,18,05,35,8.10
2014,06,18,05,36,8.10
2014,06,18,05,37,8.10
2014,06,18,05,38,8.10
2014,06,18,05,39,8.10
2014,06,18,05,40,8.10
2014,06,18,05,41,8.10
2014,06,18,05,42,8.10
2014,06,18,05,43,8.10
2014,06,18,05,44,8.10
2014,06,18,05,45,8.10
2014,06,18,05,46,7.90
2014,06,18,05,47,7.90
2014,06,18,05,48,7.90
2014,06,18,05,49,7.90
2014,06,18,05,50,7.90
2014,06,18,05,51,7.90
2014,06,18,05,52,7.90
2014,06,18,05,53,7.90
2014,06,18,05,54,7.90
2014,06,18,05,55,7.90
2014,06,18,05,56,7.90
2014,06,18,05,57,7.90
2014,06,18,05,58,7.90
2014,06,18,05,59,7.90
2014,06,18,06,00,7.90
2014,06,18,06,01,7.80
2014,06,18,06,02,7.80
2014,06,18,06,03,7.80
2014,06,18,06,04,7.80
2014,06,18,06,05,7.80
2014,06,18,06,06,7.80
2014,06,18,06,07,7.80
2014,06,18,06,08,7.80
2014,06,18,06,09,7.80
2014,06,18,06,10,7.80
2014,06,18,06,11,7.80
2014,06,18,06,12,7.80
2014,06,18,06,13,7.80
2014,06,18,06,14,7.80
2014,06,18,06,15,7.80
2014,06,18,06,16,7.80
2014,06,18,06,17,7.80
2014,06,18,06,18,7.80
2014,06,18,06,19,7.80
2014,06,18,06,20,7.80
2014,06,18,06,21,7.80
2014,06,18,06,22,7.80
2014,06,18,06,23,7.80
2014,06,18,06,24,7.80
2014,06,18,06,25,7.80
2014,06,18,06,26,7.80
2014,06,18,06,27,7.80
2014,06,18,06,28,7.80
2014,06,18,06,29,7.80
2014,06,18,06,30,7.80
2014,06,18,06,32,7.70
2014,06,18,06,33,7.70
2014,06,18,06,34,7.70
2014,06,18,06,35,7.70
2014,06,18,06,36,7.70
2014,06,18,06,37,7.70
2014,06,18,06,38,7.70
2014,06,18,06,39,7.70
2014,06,18,06,40,7.70
2014,06,18,06,41,7.70
2014,06,18,06,42,7.70
2014,06,18,06,43,7.70
2014,06,18,06,44,7.70
2014,06,18,06,45,7.70
2014,06,18,06,46,7.80
2014,06,18,06,47,7.80
2014,06,18,06,48,7.80
2014,06,18,06,49,7.80
2014,06,18,06,50,7.80
2014,06,18,06,51,7.80
2014,06,18,06,52,7.80
2014,06,18,06,53,7.80
2014,06,18,06,54,7.80
2014,06,18,06,55,7.80
2014,06,18,06,56,7.80
2014,06,18,06,57,7.80
2014,06,18,06,58,7.80
2014,06,18,06,59,7.80
2014,06,18,07,00,7.80
2014,06,18,07,01,8.00
2014,06,18,07,02,8.00
2014,06,18,07,03,8.00
2014,06,18,07,04,8.00
2014,06,18,07,05,8.00
2014,06,18,07,06,8.00
2014,06,18,07,07,8.00
2014,06,18,07,08,8.00
2014,06,18,07,09,8.00
2014,06,18,07,10,8.00
2014,06,18,07,11,8.00
2014,06,18,07,12,8.00
2014,06,18,07,13,8.00
2014,06,18,07,14,8.00
2014,06,18,07,15,8.00
2014,06,18,07,16,8.10
2014,06,18,07,17,8.10
2014,06,18,07,18,8.10
2014,06,18,07,19,8.10
2014,06,18,07,20,8.10
2014,06,18,07,21,8.10
2014,06,18,07,22,8.10
2014,06,18,07,23,8.10
2014,06,18,07,24,8.10
2014,06,18,07,25,8.10
2014,06,18,07,26,8.10
2014,06,18,07,27,8.10
2014,06,18,07,28,8.10
2014,06,18,07,29,8.10
2014,06,18,07,30,8.10
2014,06,18,07,31,8.20
2014,06,18,07,32,8.20
2014,06,18,07,33,8.20
2014,06,18,07,34,8.20
2014,06,18,07,35,8.20
2014,06,18,07,36,8.20
2014,06,18,07,37,8.20
2014,06,18,07,38,8.20
2014,06,18,07,39,8.20
2014,06,18,07,40,8.20
2014,06,18,07,41,8.20
2014,06,18,07,42,8.20
2014,06,18,07,43,8.20
2014,06,18,07,44,8.20
2014,06,18,07,45,8.20
2014,06,18,07,46,8.40
2014,06,18,07,47,8.40
2014,06,18,07,48,8.40
2014,06,18,07,49,8.40
2014,06,18,07,50,8.40
2014,06,18,07,51,8.40
2014,06,18,07,52,8.40
2014,06,18,07,53,8.40
2014,06,18,07,54,8.40
2014,06,18,07,55,8.40
2014,06,18,07,56,8.40
2014,06,18,07,57,8.40
2014,06,18,07,58,8.40
2014,06,18,07,59,8.40
2014,06,18,08,00,8.40
2014,06,18,08,01,8.50
2014,06,18,08,02,8.50
2014,06,18,08,03,8.50
2014,06,18,08,04,8.50
2014,06,18,08,05,8.50
2014,06,18,08,06,8.50
2014,06,18,08,07,8.50
2014,06,18,08,08,8.50
2014,06,18,08,09,8.50
2014,06,18,08,10,8.50
2014,06,18,08,11,8.50
2014,06,18,08,12,8.50
2014,06,18,08,13,8.50
2014,06,18,08,14,8.50
2014,06,18,08,15,8.50
2014,06,18,08,16,8.80
2014,06,18,08,17,8.80
2014,06,18,08,18,8.80
2014,06,18,08,19,8.80
2014,06,18,08,20,8.80
2014,06,18,08,21,8.80
2014,06,18,08,22,8.80
2014,06,18,08,23,8.80
2014,06,18,08,24,8.80
2014,06,18,08,25,8.80
2014,06,18,08,26,8.80
2014,06,18,08,27,8.80
2014,06,18,08,28,8.80
2014,06,18,08,29,8.80
2014,06,18,08,30,8.80
2014,06,18,08,31,8.90
2014,06,18,08,32,8.90
2014,06,18,08,33,8.90
2014,06,18,08,34,8.90
2014,06,18,08,35,8.90
2014,06,18,08,36,8.90
2014,06,18,08,37,8.90
2014,06,18,08,38,8.90
2014,06,18,08,39,8.90
2014,06,18,08,40,8.90
2014,06,18,08,41,8.90
2014,06,18,08,42,8.90
2014,06,18,08,43,8.90
2014,06,18,08,44,8.90
2014,06,18,08,45,8.90
2014,06,18,08,46,8.90
2014,06,18,08,47,9.40
2014,06,18,08,48,9.40
2014,06,18,08,49,9.40
2014,06,18,08,50,9.40
2014,06,18,08,51,9.40
2014,06,18,08,52,9.40
2014,06,18,08,53,9.40
2014,06,18,08,54,9.40
2014,06,18,08,55,9.40
2014,06,18,08,56,9.40
2014,06,18,08,57,9.40
2014,06,18,08,58,9.40
2014,06,18,08,59,9.40
2014,06,18,09,00,9.40
2014,06,18,09,01,9.70
2014,06,18,09,02,9.70
2014,06,18,09,03,9.70
2014,06,18,09,04,9.70
2014,06,18,09,05,9.70
2014,06,18,09,06,9.70
2014,06,18,09,07,9.70
2014,06,18,09,08,9.70
2014,06,18,09,09,9.70
2014,06,18,09,10,9.70
2014,06,18,09,11,9.70
2014,06,18,09,12,9.70
2014,06,18,09,13,9.70
2014,06,18,09,14,9.70
2014,06,18,09,15,9.70
2014,06,18,09,16,9.70
2014,06,18,09,17,9.60
2014,06,18,09,18,9.60
2014,06,18,09,19,9.60
2014,06,18,09,20,9.60
2014,06,18,09,21,9.60
2014,06,18,09,22,9.60
2014,06,18,09,23,9.60
2014,06,18,09,24,9.60
2014,06,18,09,25,9.60
2014,06,18,09,26,9.60
2014,06,18,09,27,9.60
2014,06,18,09,28,9.60
2014,06,18,09,29,9.60
2014,06,18,09,30,9.60
2014,06,18,09,31,9.70
2014,06,18,09,32,9.70
2014,06,18,09,33,9.70
2014,06,18,09,34,9.70
2014,06,18,09,35,9.70
2014,06,18,09,36,9.70
2014,06,18,09,37,9.70
2014,06,18,09,38,9.70
2014,06,18,09,39,9.70
2014,06,18,09,40,9.70
2014,06,18,09,41,9.70
2014,06,18,09,42,9.70
2014,06,18,09,43,9.70
2014,06,18,09,44,9.70
2014,06,18,09,45,9.70
2014,06,18,09,46,9.70
2014,06,18,09,47,10.30
2014,06,18,09,48,10.30
2014,06,18,09,49,10.30
2014,06,18,09,50,10.30
2014,06,18,09,51,10.30
2014,06,18,09,52,10.30
2014,06,18,09,53,10.30
2014,06,18,09,54,10.30
2014,06,18,09,55,10.30
2014,06,18,09,56,10.30
2014,06,18,09,57,10.30
2014,06,18,09,58,10.30
2014,06,18,09,59,10.30
2014,06,18,10,00,10.30
2014,06,18,10,01,10.30
2014,06,18,10,02,10.60
2014,06,18,10,03,10.60
2014,06,18,10,04,10.60
2014,06,18,10,05,10.60
2014,06,18,10,06,10.60
2014,06,18,10,07,10.60
2014,06,18,10,08,10.60
2014,06,18,10,09,10.60
2014,06,18,10,10,10.60
2014,06,18,10,11,10.60
2014,06,18,10,12,10.60
2014,06,18,10,13,10.60
2014,06,18,10,14,10.60
2014,06,18,10,15,10.60
2014,06,18,10,16,10.70
2014,06,18,10,17,10.70
2014,06,18,10,18,10.70
2014,06,18,10,19,10.70
2014,06,18,10,20,10.70
2014,06,18,10,21,10.70
2014,06,18,10,22,10.70
2014,06,18,10,23,10.70
2014,06,18,10,24,10.70
2014,06,18,10,25,10.70
2014,06,18,10,26,10.70
2014,06,18,10,27,10.70
2014,06,18,10,28,10.70
2014,06,18,10,29,10.70
2014,06,18,10,30,10.70
2014,06,18,10,31,10.60
2014,06,18,10,32,10.60
2014,06,18,10,33,10.60
2014,06,18,10,34,10.60
2014,06,18,10,35,10.60
2014,06,18,10,36,10.60
2014,06,18,10,37,10.60
2014,06,18,10,38,10.60
2014,06,18,10,39,10.60
2014,06,18,10,40,10.60
2014,06,18,10,41,10.60
2014,06,18,10,42,10.60
2014,06,18,10,43,10.60
2014,06,18,10,44,10.60
2014,06,18,10,45,10.60
2014,06,18,10,46,11.20
2014,06,18,10,47,11.20
2014,06,18,10,48,11.20
2014,06,18,10,49,11.20
2014,06,18,10,50,11.20
2014,06,18,10,51,11.20
2014,06,18,10,52,11.20
2014,06,18,10,53,11.20
2014,06,18,10,54,11.20
2014,06,18,10,55,11.20
2014,06,18,10,56,11.20
2014,06,18,10,57,11.20
2014,06,18,10,58,11.20
2014,06,18,10,59,11.20
2014,06,18,11,00,11.20
2014,06,18,11,01,11.20
2014,06,18,11,02,11.20
2014,06,18,11,03,11.20
2014,06,18,11,04,11.20
2014,06,18,11,05,11.20
2014,06,18,11,06,11.20
2014,06,18,11,07,11.20
2014,06,18,11,08,11.20
2014,06,18,11,09,11.20
2014,06,18,11,10,11.20
2014,06,18,11,11,11.20
2014,06,18,11,12,11.20
2014,06,18,11,13,11.20
2014,06,18,11,14,11.20
2014,06,18,11,15,11.20
2014,06,18,11,16,11.20
2014,06,18,11,17,11.20
2014,06,18,11,18,11.20
2014,06,18,11,19,11.20
2014,06,18,11,20,11.20
2014,06,18,11,21,11.20
2014,06,18,11,22,11.20
2014,06,18,11,23,11.20
2014,06,18,11,24,11.20
2014,06,18,11,25,11.20
2014,06,18,11,26,11.20
2014,06,18,11,27,11.20
2014,06,18,11,28,11.20
2014,06,18,11,29,11.20
2014,06,18,11,30,11.20
2014,06,18,11,31,11.20
2014,06,18,11,32,11.20
2014,06,18,11,33,11.20
2014,06,18,11,34,11.20
2014,06,18,11,35,11.20
2014,06,18,11,36,11.20
2014,06,18,11,37,11.20
2014,06,18,11,38,11.20
2014,06,18,11,39,11.20
2014,06,18,11,40,11.20
2014,06,18,11,41,11.20
2014,06,18,11,42,11.20
2014,06,18,11,43,11.20
2014,06,18,11,44,11.20
2014,06,18,11,45,11.20
2014,06,18,11,47,11.30
2014,06,18,11,48,11.30
2014,06,18,11,49,11.30
2014,06,18,11,50,11.30
2014,06,18,11,51,11.30
2014,06,18,11,52,11.30
2014,06,18,11,53,11.30
2014,06,18,11,54,11.30
2014,06,18,11,55,11.30
2014,06,18,11,56,11.30
2014,06,18,11,57,11.30
2014,06,18,11,58,11.30
2014,06,18,11,59,11.30
2014,06,18,12,00,11.30
2014,06,18,12,01,11.10
2014,06,18,12,02,11.10
2014,06,18,12,03,11.10
2014,06,18,12,04,11.10
2014,06,18,12,05,11.10
2014,06,18,12,06,11.10
2014,06,18,12,07,11.10
2014,06,18,12,08,11.10
2014,06,18,12,09,11.10
2014,06,18,12,10,11.10
2014,06,18,12,11,11.10
2014,06,18,12,12,11.10
2014,06,18,12,13,11.10
2014,06,18,12,14,11.10
2014,06,18,12,15,11.10
2014,06,18,12,16,10.90
2014,06,18,12,17,10.90
2014,06,18,12,18,10.90
2014,06,18,12,19,10.90
2014,06,18,12,20,10.90
2014,06,18,12,21,10.90
2014,06,18,12,22,10.90
2014,06,18,12,23,10.90
2014,06,18,12,24,10.90
2014,06,18,12,25,10.90
2014,06,18,12,26,10.90
2014,06,18,12,27,10.90
2014,06,18,12,28,10.90
2014,06,18,12,29,10.90
2014,06,18,12,30,10.90
2014,06,18,12,31,10.50
2014,06,18,12,32,10.50
2014,06,18,12,33,10.50
2014,06,18,12,34,10.50
2014,06,18,12,35,10.50
2014,06,18,12,36,10.50
2014,06,18,12,37,10.50
2014,06,18,12,38,10.50
2014,06,18,12,39,10.50
2014,06,18,12,40,10.50
2014,06,18,12,41,10.50
2014,06,18,12,42,10.50
2014,06,18,12,43,10.50
2014,06,18,12,44,10.50
2014,06,18,12,45,10.50
2014,06,18,12,46,10.40
2014,06,18,12,47,10.40
2014,06,18,12,48,10.40
2014,06,18,12,49,10.40
2014,06,18,12,50,10.40
2014,06,18,12,51,10.40
2014,06,18,12,52,10.40
2014,06,18,12,53,10.40
2014,06,18,12,54,10.40
2014,06,18,12,55,10.40
2014,06,18,12,56,10.40
2014,06,18,12,57,10.40
2014,06,18,12,58,10.40
2014,06,18,12,59,10.40
2014,06,18,13,00,10.40
2014,06,18,13,01,10.60
2014,06,18,13,02,10.60
2014,06,18,13,03,10.60
2014,06,18,13,04,10.60
2014,06,18,13,05,10.60
2014,06,18,13,06,10.60
2014,06,18,13,07,10.60
2014,06,18,13,08,10.60
2014,06,18,13,09,10.60
2014,06,18,13,10,10.60
2014,06,18,13,11,10.60
2014,06,18,13,12,10.60
2014,06,18,13,13,10.60
2014,06,18,13,14,10.60
2014,06,18,13,15,10.60
2014,06,18,13,16,10.30
2014,06,18,13,17,10.30
2014,06,18,13,18,10.30
2014,06,18,13,19,10.30
2014,06,18,13,20,10.30
2014,06,18,13,21,10.30
2014,06,18,13,22,10.30
2014,06,18,13,23,10.30
2014,06,18,13,24,10.30
2014,06,18,13,25,10.30
2014,06,18,13,26,10.30
2014,06,18,13,27,10.30
2014,06,18,13,28,10.30
2014,06,18,13,29,10.30
2014,06,18,13,30,10.30
2014,06,18,13,31,10.00
2014,06,18,13,32,10.00
2014,06,18,13,33,10.00
2014,06,18,13,34,10.00
2014,06,18,13,35,10.00
2014,06,18,13,36,10.00
2014,06,18,13,37,10.00
2014,06,18,13,38,10.00
2014,06,18,13,39,10.00
2014,06,18,13,40,10.00
2014,06,18,13,41,10.00
2014,06,18,13,42,10.00
2014,06,18,13,43,10.00
2014,06,18,13,44,10.00
2014,06,18,13,45,10.00
2014,06,18,13,46,10.10
2014,06,18,13,47,10.10
2014,06,18,13,48,10.10
2014,06,18,13,49,10.10
2014,06,18,13,50,10.10
2014,06,18,13,51,10.10
2014,06,18,13,52,10.10
2014,06,18,13,53,10.10
2014,06,18,13,54,10.10
2014,06,18,13,55,10.10
2014,06,18,13,56,10.10
2014,06,18,13,57,10.10
2014,06,18,13,58,10.10
2014,06,18,13,59,10.10
2014,06,18,14,00,10.10
2014,06,18,14,01,10.10
2014,06,18,14,02,10.20
2014,06,18,14,03,10.20
2014,06,18,14,04,10.20
2014,06,18,14,05,10.20
2014,06,18,14,06,10.20
2014,06,18,14,07,10.20
2014,06,18,14,08,10.20
2014,06,18,14,09,10.20
2014,06,18,14,10,10.20
2014,06,18,14,11,10.20
2014,06,18,14,12,10.20
2014,06,18,14,13,10.20
2014,06,18,14,14,10.20
2014,06,18,14,15,10.20
2014,06,18,14,16,9.80
2014,06,18,14,17,9.80
2014,06,18,14,18,9.80
2014,06,18,14,19,9.80
2014,06,18,14,20,9.80
2014,06,18,14,21,9.80
2014,06,18,14,22,9.80
2014,06,18,14,23,9.80
2014,06,18,14,24,9.80
2014,06,18,14,25,9.80
2014,06,18,14,26,9.80
2014,06,18,14,27,9.80
2014,06,18,14,28,9.80
2014,06,18,14,29,9.80
2014,06,18,14,30,9.80
2014,06,18,14,31,9.80
2014,06,18,14,32,9.80
2014,06,18,14,33,9.80
2014,06,18,14,34,9.80
2014,06,18,14,35,9.80
2014,06,18,14,36,9.80
2014,06,18,14,37,9.80
2014,06,18,14,38,9.80
2014,06,18,14,39,9.80
2014,06,18,14,40,9.80
2014,06,18,14,41,9.80
2014,06,18,14,42,9.80
2014,06,18,14,43,9.80
2014,06,18,14,44,9.80
2014,06,18,14,45,9.80
2014,06,18,14,46,9.80
2014,06,18,14,47,10.10
2014,06,18,14,48,10.10
2014,06,18,14,49,10.10
2014,06,18,14,50,10.10
2014,06,18,14,51,10.10
2014,06,18,14,52,10.10
2014,06,18,14,53,10.10
2014,06,18,14,54,10.10
2014,06,18,14,55,10.10
2014,06,18,14,56,10.10
2014,06,18,14,57,10.10
2014,06,18,14,58,10.10
2014,06,18,14,59,10.10
2014,06,18,15,00,10.10
2014,06,18,15,01,10.10
2014,06,18,15,02,10.10
2014,06,18,15,03,10.10
2014,06,18,15,04,10.10
2014,06,18,15,05,10.10
2014,06,18,15,06,10.10
2014,06,18,15,07,10.10
2014,06,18,15,08,10.10
2014,06,18,15,09,10.10
2014,06,18,15,10,10.10
2014,06,18,15,11,10.10
2014,06,18,15,12,10.10
2014,06,18,15,13,10.10
2014,06,18,15,14,10.10
2014,06,18,15,15,10.10
2014,06,18,15,16,10.20
2014,06,18,15,17,10.20
2014,06,18,15,18,10.20
2014,06,18,15,19,10.20
2014,06,18,15,20,10.20
2014,06,18,15,21,10.20
2014,06,18,15,22,10.20
2014,06,18,15,23,10.20
2014,06,18,15,24,10.20
2014,06,18,15,25,10.20
2014,06,18,15,26,10.20
2014,06,18,15,27,10.20
2014,06,18,15,28,10.20
2014,06,18,15,29,10.20
2014,06,18,15,30,10.20
2014,06,18,15,31,9.90
2014,06,18,15,32,9.90
2014,06,18,15,33,9.90
2014,06,18,15,34,9.90
2014,06,18,15,35,9.90
2014,06,18,15,36,9.90
2014,06,18,15,37,9.90
2014,06,18,15,38,9.90
2014,06,18,15,39,9.90
2014,06,18,15,40,9.90
2014,06,18,15,41,9.90
2014,06,18,15,42,9.90
2014,06,18,15,43,9.90
2014,06,18,15,44,9.90
2014,06,18,15,45,9.90
2014,06,18,15,46,9.80
2014,06,18,15,47,9.80
2014,06,18,15,48,9.80
2014,06,18,15,49,9.80
2014,06,18,15,50,9.80
2014,06,18,15,51,9.80
2014,06,18,15,52,9.80
2014,06,18,15,53,9.80
2014,06,18,15,54,9.80
2014,06,18,15,55,9.80
2014,06,18,15,56,9.80
2014,06,18,15,57,9.80
2014,06,18,15,58,9.80
2014,06,18,15,59,9.80
2014,06,18,16,00,9.80
2014,06,18,16,01,9.90
2014,06,18,16,02,9.90
2014,06,18,16,03,9.90
2014,06,18,16,04,9.90
2014,06,18,16,05,9.90
2014,06,18,16,06,9.90
2014,06,18,16,07,9.90
2014,06,18,16,08,9.90
2014,06,18,16,09,9.90
2014,06,18,16,10,9.90
2014,06,18,16,11,9.90
2014,06,18,16,12,9.90
2014,06,18,16,13,9.90
2014,06,18,16,14,9.90
2014,06,18,16,15,9.90
2014,06,18,16,16,9.80
2014,06,18,16,17,9.80
2014,06,18,16,18,9.80
2014,06,18,16,19,9.80
2014,06,18,16,20,9.80
2014,06,18,16,21,9.80
2014,06,18,16,22,9.80
2014,06,18,16,23,9.80
2014,06,18,16,24,9.80
2014,06,18,16,25,9.80
2014,06,18,16,26,9.80
2014,06,18,16,27,9.80
2014,06,18,16,28,9.80
2014,06,18,16,29,9.80
2014,06,18,16,30,9.80
2014,06,18,16,31,9.80
2014,06,18,16,32,9.80
2014,06,18,16,33,9.80
2014,06,18,16,34,9.80
2014,06,18,16,35,9.80
2014,06,18,16,36,9.80
2014,06,18,16,37,9.80
2014,06,18,16,38,9.80
2014,06,18,16,39,9.80
2014,06,18,16,40,9.80
2014,06,18,16,41,9.80
2014,06,18,16,42,9.80
2014,06,18,16,43,9.80
2014,06,18,16,44,9.80
2014,06,18,16,45,9.80
2014,06,18,16,46,9.80
2014,06,18,16,47,9.80
2014,06,18,16,48,9.80
2014,06,18,16,49,9.80
2014,06,18,16,50,9.80
2014,06,18,16,51,9.80
2014,06,18,16,52,9.80
2014,06,18,16,53,9.80
2014,06,18,16,54,9.80
2014,06,18,16,55,9.80
2014,06,18,16,56,9.80
2014,06,18,16,57,9.80
2014,06,18,16,58,9.80
2014,06,18,16,59,9.80
2014,06,18,17,00,9.80
2014,06,18,17,01,10.00
2014,06,18,17,02,10.00
2014,06,18,17,03,10.00
2014,06,18,17,04,10.00
2014,06,18,17,05,10.00
2014,06,18,17,06,10.00
2014,06,18,17,07,10.00
2014,06,18,17,08,10.00
2014,06,18,17,09,10.00
2014,06,18,17,10,10.00
2014,06,18,17,11,10.00
2014,06,18,17,12,10.00
2014,06,18,17,13,10.00
2014,06,18,17,14,10.00
2014,06,18,17,15,10.00
2014,06,18,17,16,9.90
2014,06,18,17,17,9.90
2014,06,18,17,18,9.90
2014,06,18,17,19,9.90
2014,06,18,17,20,9.90
2014,06,18,17,21,9.90
2014,06,18,17,22,9.90
2014,06,18,17,23,9.90
2014,06,18,17,24,9.90
2014,06,18,17,25,9.90
2014,06,18,17,26,9.90
2014,06,18,17,27,9.90
2014,06,18,17,28,9.90
2014,06,18,17,29,9.90
2014,06,18,17,30,9.90
2014,06,18,17,31,9.80
2014,06,18,17,32,9.80
2014,06,18,17,33,9.80
2014,06,18,17,34,9.80
2014,06,18,17,35,9.80
2014,06,18,17,36,9.80
2014,06,18,17,37,9.80
2014,06,18,17,38,9.80
2014,06,18,17,39,9.80
2014,06,18,17,40,9.80
2014,06,18,17,41,9.80
2014,06,18,17,42,9.80
2014,06,18,17,43,9.80
2014,06,18,17,44,9.80
2014,06,18,17,45,9.80
2014,06,18,17,46,9.80
2014,06,18,17,47,9.90
2014,06,18,17,48,9.90
2014,06,18,17,49,9.90
2014,06,18,17,50,9.90
2014,06,18,17,51,9.90
2014,06,18,17,52,9.90
2014,06,18,17,53,9.90
2014,06,18,17,54,9.90
2014,06,18,17,55,9.90